STARLINK-1585, 46117

Orbit data source: Space-Track

STARLINK-1585, 46117 is a payload satellite owned by SpaceX/Seattle (US) in LEO that was launched on Tue, 18 Aug 2020 UTC via an FALCON 9 launch vehicle from the Air Force Eastern Test Range (AFETR). Payloads include a variety of satellites, spacecraft, and rockets equipped with specific instruments for various scientific and technological missions. These include communications satellites like Starlink; space stations such as the ISS; scientific satellites like the Hubble; Earth observation satellites from companies like Planet Labs, Umbra, and HawkEye 360; GPS; miniature CubeSats for education and research; and military/defense satellites.

Loading next visibility...
STARLINK-1585 details
Identifier
46117, 2020-057A
Orbit
LEO
Last TLE update23 hours ago
Origin
Flag of USSpaceX/Seattle (US)
ManufacturerSpaceX/Seattle
MissionOperational Commercial Communications
Bus & MotorSTARLINK, Unknown motor
Mass260 kg wet, ~248 kg dry
Launch date (UTC)
2020-08-18 (4 years ago)
Launch vehicle
FALCON 9
Launch site
Air Force Eastern Test Range (AFETR)
Object type
Payload
Rocket body
Debris
Shape & HBRBox + 1 Pan, 8.86 m
Radar Cross Section13.562 m², Large (>1 m²)

Expand to show TLE details & history

TLE from 23 hours ago
0 STARLINK-1585
1 46117U 20057A   24360.59991809 -.00001266  00000-0 -66137-4 0  9992
2 46117  53.0541 107.7676 0001474  95.4070 264.7087 15.06386976240162
Epoch: 2024-12-25T14:23Z
Definitive object data (Epoch: 2024-12-25T14:23:52.922Z)
Latitude-0.00006°
Longitude157.2057°
Altitude548.225 km
Speed7.589 km/s
True Right ascension07h 11m 04s
True Declination0° 00' 00"
Sunlit
Object was in full shadow at TLE epoch
Visualization TLE readout
Latitude44.8667°
Longitude-75.17763°
Altitude550.948 km
Speed7.592 km/s
Apparent Right ascension20h 06m 55s
Apparent Declination11° 31' 35"
Sunlit
Object is in daylight
Visualization observer readout
Local Sidereal Time12:34:26
Azimuth66.058° ENE
Elevation-9.605°
Doppler factor1
Orbital elements
Apogee altitude548.543 km
Perigee altitude546.501 km
Semi-major axis6,925.659 km
Eccentricity0.0001474
Inclination53.0541°
RAAN107.7676°
Arg. of periapsis95.407°
True anomaly264.69188°
Mean anomaly264.7087°
Eccentric anomaly264.70029°
Mean motion3.76575 °/min
BSTAR-0.000066137
Orbital period95.6 mins
Loading maneuver chart data...
Loading historical data...
Loading historical data...
Loading historical data...
Loading historical data...
Loading historical data...
Loading historical data...
Loading historical data...

STARLINK-1585 Visibility forecast

Observer location: undefined°, undefined

Span
Click to sort rows by Start time (UTC) header in descending order
Start Az.
Max El. time (UTC)
Max El. Az.
Max El.
End time (UTC)
End Az.
4 mins2024-12-26 14:42:48.284Z344.501° N2024-12-26 14:44:48.284Z18.052° NNE16.061°2024-12-26 14:46:48.284Z50.335° ENE
6 mins2024-12-26 16:22:48.284Z327.915° NNW2024-12-26 16:24:48.284Z26.914° NE38.673°2024-12-26 16:28:48.284Z113.092° SE
4 mins2024-12-26 18:02:48.284Z259.169° W2024-12-26 18:03:48.284Z239.629° WSW19.795°2024-12-26 18:06:48.284Z186.421° SSW
6 mins2024-12-27 09:34:48.284Z217.407° SW2024-12-27 09:36:48.284Z176.343° S42.652°2024-12-27 09:40:48.284Z54.466° ENE
5 mins2024-12-27 11:14:48.284Z293.362° NW2024-12-27 11:16:48.284Z331.531° NNW21.891°2024-12-27 11:19:48.284Z25.889° NE
|